Location: Lac Lasalle
(46.0398°N, 74.1576°W)
Time: 20:28:13
(UTC-04:00)

ISS - Pass Details

Date: 26 March 2019
Orbit: 408 x 410 km, 51.6° (Epoch: 23 April)

Event Time Altitude Azimuth Distance (km) Brightness Sun altitude
Rises 20:34:00 0° 264° (W) 2,332 1.3 -13.9°
Reaches altitude 10° 20:36:10 10° 271° (W) 1,472 0.2 -14.2°
Maximum altitude 20:39:18 41° 344° (NNW) 609 -2.7 -14.8°
Enters shadow 20:41:39 16° 50° (NE) 1,166 -1.8 -15.1°
